Racecast

Wellston Golden Rocket Invitational

Wellston HS · 5000m · Girls · Compiled · OH

105 runners from 1 division

These divisions were run separately. This is how their times compare, not how they finished — the places and scores below were never contested.

View full meet →

Team scores

Place Team Points 12345 67
1 Vinton County (OH) 72 4 5 7 16 40 41 46
2 Bloom-Carroll (OH) 73 3 10 11 23 26 31 43
3 Adena (OH) 85 1 8 15 27 34 47 61
4 Wheelersburg (OH) 116 14 17 21 29 35 39 51
5 Bid. River Valley (OH) 116 6 12 13 28 57 58 67
6 Huntington (OH) 145 2 9 18 53 63 65 71
7 Jackson (OH) 185 25 33 38 44 45 54
8 Wellston (OH) 195 22 24 37 50 62 68
9 Symmes Valley (OH) 208 20 30 42 56 60 70 72
10 Alexander (OH) 232 19 36 52 59 66 69
11 F.F. Green (OH) 248 32 48 49 55 64

Not scored, fewer than five finishers: Oak Hill (4), Valley (4), McD. Northwest (4), Rac. Southern (3), Federal Hocking (2), Paint Valley (2), Bea. Eastern (2), Meigs (2), Chil. Southeastern (1), Minford (1), Nelsonville-York (1), Valley (1)

Results

Place Athlete Grade School Time Rating Points Actual race
1 Vanessa Conley 11 Adena (OH) 1 20:51.8 122.8 1 1
2 Rachel Lute 10 Huntington (WV) 1 21:03.8 121.7 2 2
3 Makenna West 12 Bloom-Carroll (OH) 1 21:04.1 121.6 3 3
4 Addy Brown 10 Oak Hill (IN) 1 21:07.0 121.4 4
5 Alyssa Beckner 12 Vinton County (OH) 1 21:55.9 116.9 4 5
6 Edie Templeton 10 Rac. Southern (OH) 1 22:20.7 114.8 6
7 Faith Goodson 10 Vinton County (OH) 2 22:29.8 114.0 5 7
8 Laella Mullins 11 Bid. River Valley (OH) 1 22:36.7 113.4 6 8
9 Karlie Peters 10 Chil. Southeastern (OH) 1 22:45.6 112.7 9
10 Hollie Swaim 11 Vinton County (OH) 3 23:12.2 110.6 7 10
11 Raeley Stephenson 9 Adena (OH) 2 23:49.6 107.7 8 11
12 Jessica Crocker 12 Huntington (WV) 2 23:54.0 107.4 9 12
13 Payton Wrightsel 12 Bloom-Carroll (OH) 2 24:01.8 106.8 10 13
14 Alaina Bell 10 Bloom-Carroll (OH) 3 24:08.4 106.3 11 14
15 Kaylin Burger 10 Bid. River Valley (OH) 2 24:10.1 106.2 12 15
16 Cora Kneier 9 Federal Hocking (OH) 1 24:10.5 106.2 16
17 Grace Heffernan 12 Bid. River Valley (OH) 3 24:16.3 105.7 13 17
18 Whitney Adams 12 Wheelersburg (OH) 1 24:20.9 105.4 14 18
19 Katelyn Ramsey 11 Adena (OH) 3 24:37.3 104.3 15 19
20 Ava Smith 12 Valley (CA) 1 24:58.0 102.9 20
21 Riley Nourse 9 Valley (CA) 2 25:02.9 102.5 21
22 Mackenzie Crum 12 Paint Valley (OH) 1 25:05.7 102.3 22
23 Maddi Channell 10 Vinton County (OH) 4 25:16.9 101.6 16 23
24 Josie Ware 11 Bea. Eastern (OH) 1 25:20.4 101.3 24
25 Alayna Sissel 12 Wheelersburg (OH) 2 25:26.2 101.0 17 25
26 Hayden Magill 10 Huntington (WV) 3 25:33.2 100.5 18 26
27 Christina Martinez 10 Valley (CA) 3 25:36.5 100.3 27
28 Gabriella Moran 9 Alexander (GA) 1 25:41.6 99.9 19 28
29 Madison Kelley 11 Symmes Valley (OH) 1 25:49.9 99.4 20 29
30 Amaia Robson 11 Wheelersburg (OH) 3 25:52.0 99.3 21 30
31 Rylee Leach 12 Wellston (OH) 1 26:05.0 98.4 22 31
32 Molly Daron 9 Bloom-Carroll (OH) 4 26:11.5 98.1 23 32
33 Emily McGuire 10 Wellston (OH) 2 26:30.9 96.8 24 33
34 Peyton Carpenter 9 Jackson (WA) 1 26:34.4 96.6 25 34
35 Cora Bell 10 Bloom-Carroll (OH) 5 26:35.7 96.6 26 35
36 Laikyn Puckett 9 McD. Northwest (OH) 1 26:40.0 96.3 36
37 Kadance Knight 10 Adena (OH) 4 26:42.5 96.2 27 37
38 Ava McClure 10 Bid. River Valley (OH) 4 26:49.4 95.7 28 38
39 Maddison Dietrich 12 Minford (OH) 1 26:55.0 95.4 39
40 Jacie Shaw 11 Wheelersburg (OH) 4 26:57.1 95.3 29 40
41 Kamryn Journey 10 McD. Northwest (OH) 2 27:06.7 94.7 41
42 Kayley Maynard 12 Symmes Valley (OH) 2 27:17.1 94.2 30 42
43 Emma Knisley 11 Paint Valley (OH) 2 27:18.1 94.1 43
44 Malia Gish 12 Bloom-Carroll (OH) 6 27:21.1 93.9 31 44
45 Sydney Bainer 10 F.F. Green (OH) 1 27:28.0 93.6 32 45
46 Alleah Michael 9 Jackson (WA) 2 27:37.8 93.0 33 46
47 Olivia Ferrell 10 Adena (OH) 5 27:42.0 92.8 34 47
48 Jaylen Shaw 11 Wheelersburg (OH) 5 27:58.6 91.9 35 48
49 Lillian Roach 10 Alexander (GA) 2 28:04.0 91.6 36 49
50 Brynlee Leach 9 Wellston (OH) 3 28:16.1 90.9 37 50
51 Micaela Gibson 10 Jackson (WA) 3 28:24.4 90.5 38 51
52 Riley Malone 10 Wheelersburg (OH) 6 28:28.2 90.3 39 52
53 Mattison Whiteman 9 Vinton County (OH) 5 28:28.8 90.3 40 53
54 Tzipora Wilkes 9 Federal Hocking (OH) 2 28:29.5 90.2 54
55 Emma Deck 9 Vinton County (OH) 6 28:29.5 90.2 41 55
56 Nevaeh Holbrook 9 Symmes Valley (OH) 3 28:40.5 89.7 42 56
57 Emma Muck 12 Bloom-Carroll (OH) 7 28:43.1 89.5 43 57
58 Piper Gentry 9 Jackson (WA) 4 28:50.6 89.1 44 58
59 Sophia Haddox 9 Jackson (WA) 5 29:04.4 88.4 45 59
60 Lexi Hamilton 11 Vinton County (OH) 7 29:12.2 88.0 46 60
61 Avary Wandling 9 Meigs (OH) 1 29:20.8 87.6 61
62 Jolene Graves 9 Adena (OH) 6 29:21.5 87.6 47 62
63 Mylee Brown 12 F.F. Green (OH) 2 29:29.1 87.2 48 63
64 Abigail Waddell 9 F.F. Green (OH) 3 29:30.9 87.1 49 64
65 Emily Shockey 12 Rac. Southern (OH) 2 29:34.8 86.9 65
66 Sadie Leach 12 Wellston (OH) 4 29:41.0 86.6 50 66
67 Lorelai Bentley-Cuan 10 Wheelersburg (OH) 7 29:45.5 86.4 51 67
68 Sophia Donofrio 11 Alexander (GA) 3 29:50.9 86.2 52 68
69 Emma Leachman 9 Rac. Southern (OH) 3 30:02.5 85.6 69
70 Arlene Duty 12 Huntington (WV) 4 30:06.7 85.4 53 70
71 Miller Riley 10 Bloom-Carroll (OH) 8 30:10.0 85.3 71
72 Alanta Gibson 9 Jackson (WA) 6 30:20.1 84.8 54 72
73 Abbi Thomas 12 F.F. Green (OH) 4 30:32.5 84.2 55 73
74 Abby Prince 12 Symmes Valley (OH) 4 30:45.3 83.6 56 74
75 Skylar Price 9 Bid. River Valley (OH) 5 31:32.4 81.6 57 75
76 Kylee Mitchem 9 Bid. River Valley (OH) 6 31:47.2 80.9 58 76
77 Catalina Dixon 10 Nelsonville-York (OH) 1 31:52.8 80.7 77
78 Elsie Miller 12 Bloom-Carroll (OH) 9 32:12.9 79.9 78
79 Grace Ford 11 Alexander (GA) 4 32:29.4 79.2 59 79
80 Lexi Newman 9 Symmes Valley (OH) 5 32:34.0 79.0 60 80
81 Madelynn Dennis 10 Adena (OH) 7 33:00.7 61 81
82 Emmalynn Glispie 9 Wellston (OH) 5 33:14.1 77.4 62 82
83 Delilah Sams 10 Huntington (WV) 5 33:18.5 77.3 63 83
84 Kelly Wolford 9 Bea. Eastern (OH) 2 33:19.6 77.2 84
85 Kailen Dingus 9 F.F. Green (OH) 5 33:30.2 76.8 64 85
86 Maria Jackson 9 Adena (OH) 8 33:48.3 76.1 86
87 Emma Swords 9 Huntington (WV) 6 33:49.4 76.1 65 87
88 Cory Haning 9 Alexander (GA) 5 34:23.3 74.9 66 88
89 Addison DeWitt 9 Bid. River Valley (OH) 7 34:29.6 74.6 67 89
90 Kaelynn Coughenour 10 Bid. River Valley (OH) 8 34:29.8 74.6 90
91 Fallan Leach 9 Wellston (OH) 6 35:51.4 71.8 68 91
92 Maya Wakefield 9 Oak Hill (IN) 2 36:52.0 69.9 92
93 Brandi Smittle 10 Oak Hill (IN) 3 37:10.7 69.3 93
94 Amarybee McCain 10 Oak Hill (IN) 4 37:18.9 69.0 94
95 Keeley Porginski 10 Valley (CA) 1 37:37.8 68.5 95
96 Lillianna Dyar 9 Bloom-Carroll (OH) 10 38:05.8 67.6 96
97 Sam Eskey 12 Alexander (GA) 6 38:51.8 66.3 69 97
98 Elizabeth Townsend 9 Symmes Valley (OH) 6 39:27.3 65.3 70 98
99 Ava Potter 11 Huntington (WV) 7 39:51.0 71 99
100 Lyla Gilbert 9 Symmes Valley (OH) 7 41:17.2 62.4 72 100
101 Allie Cantrell 9 McD. Northwest (OH) 3 42:27.3 60.7 101
102 Abigail Gullett 10 Valley (CA) 4 43:03.3 59.9 102
103 Josephine Grubb-Luttrell 9 Bloom-Carroll (OH) 11 43:36.4 103
104 Caitlin Allen 11 Meigs (OH) 2 45:59.3 56.1 104
105 Casey Brown 9 McD. Northwest (OH) 4 52:58.8 48.7 105